User: anonymous   Login
Location: Unspecified
(0.0000°N, 0.0000°E)
Time: 00:47:36
(UTC+02:00)
Language:

Haruka - Orbit

View from above orbital plane
View from above orbital plane
View from above satellite
View from above satellite

Ground track
Ground track

The orbit data is extracted from the following two-line orbital elements,

1 24720U 97005A   18196.18264358  .00000180  00000-0  89420-3 0  9993
2 24720  31.3111 330.4217 5991790 225.8568  66.8016  3.82989245298650
Epoch (UTC): 15 July 2018 04:23:00
Eccentricity: 0.5991790
inclination: 31.3111°
perigee height: 538 km
apogee height: 21217 km
right ascension of ascending node: 330.4217°
argument of perigee: 225.8568°
revolutions per day: 3.82989245
mean anomaly at epoch: 66.8016°
orbit number at epoch: 29865

The dashed part of the orbit path shows where the satellite is in the earth's shadow,  

DLR